When you browse on this site, cookies collect data to enhance your experience and personalize the content and advertising you see.
Visit our Privacy Policy to learn more. By continuing to use the site, you agree to this use of cookies and data.
  • In Romania
  • List of Countries
  • For 7 days
  • Water Temperature
  • Satellite Maps
  • Weather Map
  • Weather Widgets
  • user-avatar
    Login

    Hourly Weather Salta

    Today, 24 February, Sunday

    Time Temperature Precipitation Wind Pressure Humidity
    00:00 +24°C° 0 mm 1 mps 647 mmHg 59%
    01:00 +23°C° 0 mm 1 mps 646 mmHg 61%
    02:00 +23°C° 0 mm 1 mps 646 mmHg 62%
    03:00 +22°C° 0 mm 1 mps 646 mmHg 64%
    04:00 +22°C° 0 mm 1 mps 646 mmHg 66%
    05:00 +19°C° 0 mm 0 mps 646 mmHg 67%
    06:00 +23°C° 0 mm 1 mps 647 mmHg 62%
    07:00 +25°C° 0 mm 1 mps 648 mmHg 57%
    08:00 +27°C° 0 mm 1 mps 649 mmHg 52%
    09:00 +29°C° 0 mm 1 mps 649 mmHg 47%
    10:00 +31°C° 0 mm 2 mps 650 mmHg 42%
    11:00 +34°C° 0 mm 2 mps 650 mmHg 37%
    12:00 +35°C° 0 mm 3 mps 650 mmHg 36%
    13:00 +35°C° 0 mm 3 mps 650 mmHg 35%
    14:00 +36°C° 0 mm 3 mps 649 mmHg 35%
    15:00 +34°C° 0.2 mm 3 mps 648 mmHg 40%
    16:00 +33°C° 0.2 mm 3 mps 647 mmHg 46%
    17:00 +30°C° 0.2 mm 3 mps 647 mmHg 51%
    18:00 +28°C° 0.6 mm 2 mps 647 mmHg 61%
    19:00 +26°C° 0.6 mm 2 mps 646 mmHg 71%
    20:00 +24°C° 0.6 mm 1 mps 646 mmHg 81%
    21:00 +24°C° 1.7 mm 1 mps 647 mmHg 83%
    22:00 +24°C° 1.7 mm 1 mps 648 mmHg 84%
    23:00 +23°C° 1.7 mm 1 mps 648 mmHg 86%

    Tomorrow, 25 February, Monday

    Time Temperature Precipitation Wind Pressure Humidity
    00:00 +23°C° 3 mm 1 mps 648 mmHg 86%
    01:00 +22°C° 3 mm 1 mps 648 mmHg 87%
    02:00 +22°C° 3 mm 1 mps 647 mmHg 88%
    03:00 +21°C° 0.1 mm 1 mps 647 mmHg 87%
    04:00 +21°C° 0.1 mm 1 mps 647 mmHg 86%
    05:00 +21°C° 0.1 mm 1 mps 647 mmHg 84%
    06:00 +22°C° 0.1 mm 1 mps 648 mmHg 85%
    07:00 +22°C° 0.1 mm 1 mps 649 mmHg 85%
    08:00 +23°C° 0.1 mm 2 mps 649 mmHg 85%
    09:00 +24°C° 0.7 mm 2 mps 650 mmHg 79%
    10:00 +26°C° 0.7 mm 3 mps 651 mmHg 74%
    11:00 +27°C° 0.7 mm 3 mps 651 mmHg 68%
    12:00 +27°C° 1.9 mm 3 mps 651 mmHg 70%
    13:00 +27°C° 1.9 mm 3 mps 651 mmHg 72%
    14:00 +26°C° 1.9 mm 3 mps 650 mmHg 74%
    15:00 +25°C° 1.3 mm 2 mps 650 mmHg 77%
    16:00 +24°C° 1.3 mm 2 mps 649 mmHg 80%
    17:00 +24°C° 1.3 mm 2 mps 649 mmHg 83%
    18:00 +21°C° 1.2 mm 2 mps 649 mmHg 87%
    19:00 +20°C° 1.2 mm 2 mps 650 mmHg 90%
    20:00 +19°C° 1.2 mm 2 mps 650 mmHg 94%
    21:00 +18°C° 0.1 mm 2 mps 651 mmHg 94%
    22:00 +19°C° 0.1 mm 1 mps 651 mmHg 94%
    23:00 +19°C° 0.1 mm 1 mps 652 mmHg 94%

    Day after tomorrow, 26 February, Tuesday

    Time Temperature Precipitation Wind Pressure Humidity
    00:00 +18°C° 0 mm 1 mps 652 mmHg 92%
    01:00 +18°C° 0 mm 1 mps 652 mmHg 90%
    02:00 +18°C° 0 mm 1 mps 652 mmHg 88%
    03:00 +18°C° 0.2 mm 1 mps 652 mmHg 88%
    04:00 +16°C° 0.2 mm 1 mps 652 mmHg 89%
    05:00 +16°C° 0.2 mm 1 mps 652 mmHg 90%
    06:00 +16°C° 0.5 mm 1 mps 652 mmHg 90%
    07:00 +18°C° 0.5 mm 1 mps 653 mmHg 90%
    08:00 +18°C° 0.5 mm 1 mps 653 mmHg 90%
    09:00 +18°C° 0.1 mm 1 mps 653 mmHg 88%
    10:00 +19°C° 0.1 mm 1 mps 654 mmHg 85%
    11:00 +20°C° 0.1 mm 1 mps 654 mmHg 83%
    12:00 +21°C° 0.1 mm 2 mps 654 mmHg 75%
    13:00 +24°C° 0.1 mm 2 mps 653 mmHg 66%
    14:00 +26°C° 0.1 mm 2 mps 653 mmHg 57%
    15:00 +24°C° 0.4 mm 2 mps 652 mmHg 64%
    16:00 +23°C° 0.4 mm 2 mps 651 mmHg 71%
    17:00 +21°C° 0.4 mm 1 mps 650 mmHg 78%
    18:00 +21°C° 0.5 mm 1 mps 651 mmHg 82%
    19:00 +20°C° 0.5 mm 1 mps 651 mmHg 86%
    20:00 +19°C° 0.5 mm 1 mps 651 mmHg 90%
    21:00 +17°C° 0.3 mm 0 mps 652 mmHg 91%
    22:00 +16°C° 0.3 mm 0 mps 652 mmHg 92%
    23:00 +16°C° 0.3 mm 0 mps 652 mmHg 93%

    27 February, Wednesday

    Time Temperature Precipitation Wind Pressure Humidity
    00:00 +16°C° 0.1 mm 0 mps 652 mmHg 93%
    01:00 +15°C° 0.1 mm 0 mps 651 mmHg 93%
    02:00 +15°C° 0.1 mm 0 mps 651 mmHg 94%
    03:00 +14°C° 0 mm 0 mps 651 mmHg 94%
    04:00 +14°C° 0 mm 0 mps 650 mmHg 93%
    05:00 +14°C° 0 mm 0 mps 650 mmHg 93%
    06:00 +16°C° 0 mm 1 mps 651 mmHg 91%
    07:00 +18°C° 0 mm 1 mps 651 mmHg 88%
    08:00 +19°C° 0 mm 1 mps 652 mmHg 85%
    09:00 +20°C° 0 mm 1 mps 652 mmHg 79%
    10:00 +21°C° 0 mm 2 mps 652 mmHg 74%
    11:00 +23°C° 0 mm 2 mps 653 mmHg 68%
    12:00 +24°C° 0 mm 2 mps 652 mmHg 66%
    13:00 +24°C° 0 mm 2 mps 651 mmHg 64%
    14:00 +25°C° 0 mm 2 mps 651 mmHg 62%
    15:00 +25°C° 0 mm 2 mps 651 mmHg 61%
    16:00 +25°C° 0 mm 2 mps 650 mmHg 59%
    17:00 +25°C° 0 mm 2 mps 650 mmHg 58%
    18:00 +23°C° 0 mm 2 mps 650 mmHg 65%
    19:00 +21°C° 0 mm 1 mps 650 mmHg 72%
    20:00 +20°C° 0 mm 1 mps 650 mmHg 80%
    21:00 +19°C° 0 mm 1 mps 650 mmHg 82%
    22:00 +16°C° 0 mm 0 mps 651 mmHg 84%
    23:00 +16°C° 0 mm 0 mps 651 mmHg 86%

    28 February, Thursday

    Time Temperature Precipitation Wind Pressure Humidity
    00:00 +15°C° 0 mm 0 mps 651 mmHg 87%
    01:00 +15°C° 0 mm 0 mps 651 mmHg 88%
    02:00 +16°C° 0 mm 1 mps 650 mmHg 89%
    03:00 +16°C° 0 mm 1 mps 651 mmHg 88%
    04:00 +16°C° 0 mm 1 mps 651 mmHg 88%
    05:00 +16°C° 0 mm 1 mps 651 mmHg 87%
    06:00 +17°C° 0 mm 0 mps 652 mmHg 80%
    07:00 +18°C° 0 mm 0 mps 653 mmHg 73%
    08:00 +20°C° 0 mm 0 mps 654 mmHg 66%
    09:00 +24°C° 0 mm 1 mps 655 mmHg 59%
    10:00 +26°C° 0 mm 1 mps 655 mmHg 53%
    11:00 +28°C° 0 mm 2 mps 655 mmHg 46%
    12:00 +28°C° 0 mm 2 mps 655 mmHg 44%
    13:00 +29°C° 0 mm 2 mps 654 mmHg 42%
    14:00 +30°C° 0 mm 2 mps 654 mmHg 39%
    15:00 +30°C° 0 mm 2 mps 653 mmHg 40%
    16:00 +29°C° 0 mm 3 mps 653 mmHg 42%
    17:00 +29°C° 0 mm 3 mps 652 mmHg 43%
    18:00 +26°C° 0 mm 2 mps 652 mmHg 52%
    19:00 +24°C° 0 mm 2 mps 652 mmHg 61%
    20:00 +21°C° 0 mm 1 mps 651 mmHg 69%
    21:00 +20°C° 0 mm 1 mps 651 mmHg 72%
    22:00 +20°C° 0 mm 1 mps 651 mmHg 74%
    23:00 +17°C° 0 mm 0 mps 651 mmHg 76%

    1 March, Friday

    Time Temperature Precipitation Wind Pressure Humidity
    00:00 +16°C° 0 mm 0 mps 651 mmHg 78%
    01:00 +16°C° 0 mm 0 mps 650 mmHg 79%
    02:00 +16°C° 0 mm 0 mps 650 mmHg 80%
    03:00 +15°C° 0 mm 0 mps 649 mmHg 80%
    04:00 +15°C° 0 mm 0 mps 649 mmHg 80%
    05:00 +15°C° 0 mm 0 mps 649 mmHg 80%
    06:00 +17°C° 0 mm 0 mps 650 mmHg 73%
    07:00 +21°C° 0 mm 1 mps 651 mmHg 66%
    08:00 +22°C° 0 mm 1 mps 652 mmHg 59%
    09:00 +24°C° 0 mm 1 mps 652 mmHg 54%
    10:00 +26°C° 0 mm 2 mps 652 mmHg 49%
    11:00 +28°C° 0 mm 3 mps 652 mmHg 45%
    12:00 +29°C° 0.1 mm 3 mps 652 mmHg 43%
    13:00 +30°C° 0.1 mm 3 mps 651 mmHg 41%
    14:00 +32°C° 0.1 mm 4 mps 650 mmHg 39%
    15:00 +30°C° 0.2 mm 4 mps 650 mmHg 40%
    16:00 +30°C° 0.2 mm 3 mps 649 mmHg 41%
    17:00 +29°C° 0.2 mm 3 mps 649 mmHg 42%
    18:00 +27°C° 0 mm 3 mps 649 mmHg 49%
    19:00 +24°C° 0 mm 2 mps 649 mmHg 56%
    20:00 +22°C° 0 mm 1 mps 649 mmHg 64%
    21:00 +21°C° 0 mm 1 mps 649 mmHg 65%
    22:00 +21°C° 0 mm 1 mps 649 mmHg 66%
    23:00 +20°C° 0 mm 1 mps 649 mmHg 67%
    Show more